Location: Unspecified
(0.0000°N, 0.0000°E)
Time: 13:51:22
(UTC+00:00)

Altair - Pass Details

Date: 27 October 2021
Orbit: 1502 x 1682 km, 47.2° (Epoch: 26 November)

Event Time Altitude Azimuth Distance (km) Brightness Sun altitude
Rises 22:43:50 0° 223° (SW) 4,675 10.3 -70.2°
Enters shadow 22:44:34 - 223° (SW) 4,439 10.2 -70.3°
Reaches altitude 10° 22:46:54 10° 224° (SW) 3,676 - -70.7°
Maximum altitude 22:56:06 77° 309° (NW) 1,533 - -72.3°
Drops below altitude 10° 23:05:16 10° 35° (NE) 3,653 - -73.8°
Sets 23:08:18 0° 36° (NE) 4,644 - -74.2°
